{"data":{"norad_id":69667,"intl_designator":"2026-143U","name":"STARLINK-37941","alt_names":[],"object_type":"PAYLOAD","status":"ACTIVE","operator":null,"country":"US","launch_date":"2026-06-21","launch_site_code":"AFWTR","launch_vehicle":null,"mission":null,"orbit_class":"UNKNOWN","rcs_meters":null,"size_class":null,"mass_kg":null,"dimensions":null,"purposes":["comms"],"wikipedia_slug":null,"has_3d_model":false,"image_url":null,"decayed_at":null,"tle_current":{"epoch":"2026-09-19T20:34:31.984032Z","epoch_age_seconds":77203,"freshness":"FRESH","line1":"1 69667U 26143U   26262.85731463  .00017642  00000+0  54704-3 0  9997","line2":"2 69667  97.2828 306.0490 0000292 153.8431 206.2827 15.33473078 15040","mean_motion":15.33473078,"eccentricity":2.92e-5,"inclination_deg":97.2828,"raan_deg":306.049,"arg_perigee_deg":153.8431,"mean_anomaly_deg":206.2827,"bstar":0.00054704,"rev_number":1504,"period_min":93.904485227617,"perigee_km":465.25980235763,"apogee_km":465.65946840113,"semimajor_km":6843.5966353794,"source":"CELESTRAK","updated_at":"2026-09-20T09:00:44.250480Z"}}}